{"data":{"norad_id":81329,"intl_designator":"","name":"UNKNOWN","alt_names":[],"object_type":"UNKNOWN","status":"UNKNOWN","operator":null,"country":null,"launch_date":null,"launch_site_code":null,"launch_vehicle":null,"mission":null,"orbit_class":"UNKNOWN","rcs_meters":null,"size_class":null,"mass_kg":null,"dimensions":null,"purposes":[],"wikipedia_slug":null,"has_3d_model":false,"image_url":null,"decayed_at":null,"tle_current":{"epoch":"2026-08-20T09:37:04.063008Z","epoch_age_seconds":2701718,"freshness":"OLD","line1":"1 81329U          26232.40074147  .00001066  00000+0  38338-3 0  9995","line2":"2 81329  65.8181 276.0898 0840945 276.9321  73.6873 13.23125944611235","mean_motion":13.23125944,"eccentricity":0.0840945,"inclination_deg":65.8181,"raan_deg":276.0898,"arg_perigee_deg":276.9321,"mean_anomaly_deg":73.6873,"bstar":0.00038338,"rev_number":61123,"period_min":108.83317695719,"perigee_km":537.81098279863,"apogee_km":1807.7961234915,"semimajor_km":7550.9405531451,"source":"CELESTRAK","updated_at":"2026-09-19T09:01:09.929761Z"}}}